Location: City of Woden
(43.2308°N, 93.9114°W)
Time: 00:31:49
(UTC+00:00)

Daily predictions for brighter satellites

Satellite Brightness Start Highest point End
(mag) Time Altitude Azimuth Time Altitude Azimuth Time Altitude Azimuth
Cosmos 990 Rocket 3.9 00:38:16 10° S 00:43:22 71° ESE 00:48:30 10° NNE
Meteor 2-9 Rocket 4.5 00:39:13 10° S 00:44:52 52° E 00:50:30 10° NNE
NOSS 2-2 (D) 4.2 00:42:02 10° S 00:44:53 23° ESE 00:47:51 10° ENE
Cosmos 1378 4.1 00:42:08 10° NNW 00:45:46 54° W 00:49:22 10° S
CZ-2C R/B 3.3 00:42:07 10° SE 00:47:08 53° ENE 00:52:29 10° N
Cosmos 923 Rocket 4.3 00:42:00 10° NNW 00:47:14 74° WSW 00:52:24 10° SSE
Cosmos 1844 Rocket 4.2 00:46:16 10° SE 00:48:48 13° E 00:51:21 10° ENE
USA 116 3.7 00:47:58 10° NNE 00:51:22 51° E 00:55:07 10° S
Cosmos 2227 4.2 00:45:53 10° SSW 00:51:36 76° ESE 00:57:21 10° NNE
CENTAUR R/B 4.3 00:46:19 10° NNW 00:52:37 26° NNE 00:59:30 10° E
GP-B 3.4 00:51:06 10° N 00:55:33 74° W 00:59:59 10° S
Ariane Rocket 4.2 00:51:51 10° ESE 00:55:46 23° ENE 00:59:42 10° NNE
YAOGAN 1 2.5 00:51:32 10° SSE 00:55:51 83° ENE 01:00:11 10° NNW
USA 186 3.6 00:54:57 10° ESE 00:56:45 15° ENE 00:58:36 10° NNE
Cosmos 1943 3.3 00:52:43 10° NNW 00:58:21 64° ENE 01:03:57 10° SE
Okean 2 3.4 00:55:39 10° N 00:59:50 74° E 01:03:59 10° SSE
Tsikada Rocket 4.4 00:57:11 10° NNW 01:03:18 69° W 01:09:24 10° S
Cosmos 1464 Rocket 4.5 00:57:52 10° SSE 01:03:21 36° E 01:08:52 10° NNE
CSL-04 Debris 4.1 01:04:06 10° SSE 01:09:28 81° ENE 01:14:53 10° NNW
Cosmos 1898 Rocket 3.8 01:06:14 10° SSW 01:11:23 73° WNW 01:16:36 10° NNE
Meteor 1-21 4.2 01:05:58 10° N 01:11:35 76° E 01:17:10 10° SSE
Cosmos 1975 3.1 01:07:35 10° SSW 01:11:40 74° W 01:15:46 10° N
CZ-4 R/B 2.5 01:09:28 10° S 01:13:33 50° W 01:17:40 10° NNW
Cosmos 1782 Rocket 3.6 01:11:50 10° S 01:16:14 86° W 01:20:42 10° N
Cosmos 1867 3.9 01:11:39 10° NNW 01:16:59 50° NE 01:21:22 15° ESE
Cosmos 1603 3.9 01:12:25 10° NNW 01:18:06 78° WSW 01:23:42 10° SSE
CSL-04 Rocket 3.7 01:13:25 10° SSE 01:18:50 88° W 01:24:21 10° NNW
CZ-2C R/B 2.6 01:17:56 10° SW 01:20:33 19° S 01:22:04 15° SE
Cosmos 1025 Rocket 3.8 01:16:49 10° N 01:20:46 32° ENE 01:23:50 15° SE
USA 102 4.4 01:22:51 12° SSE 01:28:08 78° ENE 01:32:20 10° NNW
Cosmos 1674 4.3 01:26:26 10° NNE 01:29:01 17° ENE 01:29:01 17° ENE
Cosmos 1842 4.2 01:25:24 10° NNW 01:29:09 51° W 01:32:54 10° S
Cosmos 372 Rocket 4.0 01:24:05 10° S 01:29:12 56° ESE 01:34:20 10° NNE
NOSS 2-2 (C) 2.9 01:25:47 10° SSW 01:29:16 76° SE 01:33:02 10° NE
NOSS 3-2 (A) 4.5 01:23:22 10° NNW 01:30:29 46° NE 01:36:10 19° ESE
Cosmos 1891 Rocket 4.4 01:24:49 10° S 01:30:53 63° E 01:36:53 10° NNE
Cosmos 2150 Rocket 4.5 01:28:54 10° S 01:33:49 39° ESE 01:38:51 10° NE
BREEZE-M DEB (TANK) 2.9 01:34:35 10° WNW 01:37:35 74° NNE 01:42:24 21° ESE
Cosmos 1937 Rocket 4.2 01:35:31 10° SW 01:40:40 56° WNW 01:45:50 10° NNE
Cosmos 1975 Rocket 3.7 01:37:25 10° NNW 01:41:40 57° W 01:45:53 10° S
MOS 1 Rocket 3.3 01:37:47 10° N 01:42:16 76° WNW 01:46:33 10° SSW
Cosmos 2084 Rocket 4.3 01:38:27 10° NW 01:42:46 50° WSW 01:46:48 12° SSE
Cosmos 1707 2.6 01:39:21 10° N 01:43:12 81° E 01:46:32 13° S
Cosmos 1125 Rocket 4.2 01:39:23 10° SSE 01:44:01 32° E 01:48:41 10° NE
SJ-6B 2.9 01:44:18 32° SE 01:45:35 47° ENE 01:49:12 10° N
Abrixas rocket 3.5 01:44:07 10° WNW 01:46:39 28° N 01:47:39 22° NNE
Resurs 01 Rocket 3.0 01:49:34 21° ENE 01:49:34 21° ENE 01:52:50 10° NNE
USA 234 3.4 01:45:34 10° ENE 01:51:55 50° SE 01:58:14 10° SSW
ISS -3.8 01:48:40 10° WSW 01:52:02 84° NNW 01:53:13 38° NE
Sich 1 Rocket 4.4 01:51:21 10° SSW 01:55:44 55° W 02:00:13 10° N
Nadezhda 4 Rocket 3.9 01:52:35 10° N 01:58:41 65° E 02:03:08 19° SSE
Cosmos 2034 Rocket 3.9 01:53:58 10° S 02:00:17 72° E 02:06:38 10° NNE
H-2A R/B 3.1 01:57:10 10° S 02:01:50 42° W 02:06:37 10° NNW
In-Cosmos 22 4.0 01:58:23 10° N 02:03:42 90° WSW 02:07:58 16° S
NOSS 3-2 (C) 4.4 01:57:39 10° NNW 02:04:49 48° NE 02:08:32 30° E
ARGOS 3.8 02:01:15 10° S 02:06:29 54° W 02:11:45 10° NNW
ARIANE 5 R/B 4.5 02:07:56 17° NE 02:07:56 17° NE 02:09:45 10° NNE
Cosmos 1174 4.4 02:03:35 10° SSW 02:08:23 80° ESE 02:14:30 10° NE
SL-08 RB Rocket 4.1 02:05:17 12° S 02:09:29 63° WSW 02:14:02 10° NNW
CZ-2C R/B 2.7 02:06:02 10° NNE 02:11:36 90° NNW 02:17:13 10° SSW
Cosmos 1048 Rocket 4.0 02:08:21 10° NNW 02:13:39 70° ENE 02:15:16 45° SE
Lacrosse 5 rocket 4.1 02:11:38 10° NW 02:14:10 15° N 02:16:45 10° NNE
Okean 2 Rocket 3.9 02:11:01 10° SSW 02:15:25 53° W 02:19:50 10° N
MOS 1 4.3 02:14:02 21° S 02:18:02 81° WSW 02:23:47 10° NNW
Okean 1 Rocket 3.5 02:19:54 46° NE 02:19:54 46° NE 02:23:25 10° NNE
BREEZE-M DEB (TANK) 4.3 02:18:33 10° W 02:19:17 17° W 02:19:17 17° W
Cosmos 1844 3.6 02:15:11 10° S 02:20:49 64° ESE 02:26:26 10° NNE
Cosmos 2263 Rocket 4.5 02:20:55 10° WSW 02:25:20 24° NW 02:29:49 10° N
USA 186 3.6 02:26:23 24° WSW 02:27:12 27° W 02:29:59 10° NW
Resurs 1-3 3.4 02:27:34 76° ENE 02:27:34 76° ENE 02:31:58 10° N
ATLAS 2AS CENTAUR R/B 3.6 02:23:45 10° S 02:33:18 35° ENE 02:38:18 10° NE
Cosmos 1844 Rocket 2.6 02:26:18 10° SSW 02:31:51 84° WNW 02:37:29 10° NNE
Cosmos 1634 Rocket 3.9 02:32:53 54° ESE 02:33:39 58° E 02:39:42 10° NNE
Ariane Rocket 3.9 02:30:49 18° SSW 02:34:24 47° W 02:39:19 10° NNW
Cosmos 1626 4.3 02:34:58 10° N 02:36:02 18° NNE 02:36:02 18° NNE
Cosmos 2285 Rocket 3.8 02:32:50 10° SSW 02:39:07 80° ESE 02:45:29 10° NNE
CZ-2C R/B 4.4 02:35:26 10° NNE 02:38:26 42° NNE 02:38:26 42° NNE
CENTAUR R/B 3.2 02:36:41 10° NNW 02:44:47 71° NE 02:47:17 50° ESE
Cosmos 494 Rocket 3.8 02:40:26 10° NNW 02:45:43 85° ENE 02:45:44 85° ENE
OBJECT-B 3.0 02:47:22 25° NW 02:47:22 25° NW 02:49:00 10° NNW
SPOT 3 Rocket 3.5 02:46:18 73° SSW 02:46:46 81° WSW 02:51:57 10° NNW
ATLAS 3B R/B 3.7 02:44:47 10° NNW 02:50:50 32° NE 02:51:46 31° NE
Cosmos 1627 Rocket 4.4 02:45:06 10° N 02:51:32 82° E 02:52:26 67° SSE
Terra 4.3 02:54:47 11° NNE 02:54:47 11° NNE 02:55:10 10° NNE
USA 238 DEB 3.8 02:46:19 10° NW 02:53:36 79° WSW 02:55:26 55° SSE
USA 238 3.8 02:46:25 10° NW 02:53:42 79° WSW 02:55:31 55° SSE
Cosmos 1833 Rocket 4.0 02:50:37 10° N 02:54:32 28° NE 02:54:32 28° NE
Cosmos 1092 Rocket 4.1 02:51:15 10° NNW 02:57:24 73° W 02:58:55 52° SSW
Cosmos 2195 Rocket 4.5 02:54:10 10° N 03:00:26 78° W 03:01:28 62° SSW
Exosat Rocket 4.0 02:56:15 10° SW 03:01:55 59° WNW 03:06:52 10° NNE
Cosmos 2026 Rocket 3.9 02:58:12 10° N 03:04:36 85° W 03:05:12 74° SSW
Cosmos 2279 Rocket 4.4 03:19:04 54° NNE 03:19:04 54° NNE 03:23:49 10° N
Meteor 2-5 Rocket 4.2 03:14:58 10° NNW 03:20:27 54° W 03:20:32 54° W
Resurs 01 Rocket 3.4 03:27:09 31° NW 03:27:09 31° NW 03:29:56 10° NNW
Lacrosse 4 Rocket 4.4 03:27:22 10° N 03:27:22 10° N 03:27:22 10° N
USA 234 3.8 03:29:34 15° NE 03:34:57 55° NNW 03:41:18 10° WSW
Cosmos 2082 Rocket 3.8 03:31:00 10° N 03:33:54 26° NNE 03:33:54 26° NNE
COSMOS 2406 4.3 03:39:00 10° NNW 03:42:34 40° NNW 03:42:34 40° NNW
Lacrosse 5 rocket 4.4 03:52:06 10° NNW 03:53:18 14° NNW 03:53:18 14° NNW
ATLAS 2AS CENTAUR R/B 3.5 04:14:08 10° WSW 04:21:54 54° NW 04:29:37 10° NNE
CENTAUR R/B 4.3 04:28:01 10° NW 04:34:28 33° WSW 04:34:28 33° WSW
ATLAS 3B R/B 3.9 04:35:10 10° NW 04:39:01 36° NW 04:39:01 36° NW
SL-16 R/B 4.4 07:12:44 25° NNE 07:12:44 25° NNE 07:15:24 10° N
Lacrosse 5 4.4 08:09:35 16° ENE 08:09:35 16° ENE 08:10:48 10° ENE
USA 267 4.2 08:00:01 10° NE 08:04:18 40° ENE 08:04:18 40° ENE
Cosmos 2227 Rocket 4.3 08:10:35 10° NNW 08:12:08 19° N 08:12:08 19° N
ADEOS II 3.7 08:19:21 10° NNE 08:22:10 31° NE 08:22:10 31° NE
IDEFIX/ARIANE 42P 4.2 08:32:23 10° NE 08:36:52 28° E 08:36:52 28° E
USA 234 4.0 08:34:46 10° E 08:41:00 49° NNE 08:46:54 12° NW
CZ-3B R/B 4.4 08:44:41 20° NE 08:44:41 20° NE 08:46:44 10° NE
ARIANE 5 R/B 3.8 08:39:21 10° NNE 08:43:09 37° ENE 08:43:09 37° ENE
CZ-2D R/B 3.9 08:45:12 10° N 08:47:19 22° NNW 08:47:19 22° NNW
ATLAS 5 CENTAUR R/B 4.0 08:54:03 17° N 08:54:03 17° N 08:55:48 10° NNE
Resurs 1-4 Rocket 4.0 08:58:19 10° N 09:00:15 19° NNW 09:00:15 19° NNW
Cosmos 2360 4.5 09:06:43 63° E 09:06:43 63° E 09:12:14 10° NNE
Cosmos 2082 4.1 09:01:57 10° NNW 09:06:31 57° N 09:06:31 57° N
ASTEX 1 4.0 09:09:04 10° NNE 09:13:57 52° E 09:14:18 51° ESE
Meteor 1-26 Rocket 4.4 09:13:42 60° ESE 09:14:02 61° E 09:19:22 10° NNE
USA 307 4.2 09:17:10 38° NE 09:17:10 38° NE 09:19:51 10° NE
SL-8 R/B 4.5 09:17:58 47° NNE 09:17:58 47° NNE 09:22:17 10° E
USA 308 4.1 09:20:08 40° NE 09:20:08 40° NE 09:22:58 10° NE
Cosmos 1697 Rocket 2.7 09:19:34 72° NNW 09:19:34 72° NNW 09:24:43 10° NNE
IRS-P3 4.5 09:16:13 10° N 09:20:33 54° NNW 09:20:33 54° NNW
Meteor 1-25 Rocket 4.1 09:15:42 10° N 09:21:33 89° E 09:21:47 83° SSE
Cosmos 1980 Rocket 2.5 09:22:31 55° SSE 09:23:19 61° ESE 09:28:55 10° NNE
Cosmos 1782 3.7 09:32:44 45° NNE 09:32:44 45° NNE 09:35:39 10° NNE
Cosmos 2263 Rocket 3.8 09:27:55 10° N 09:33:02 34° NE 09:38:10 10° ESE
SL-16 R/B 4.3 09:32:49 10° SSE 09:37:07 23° E 09:41:27 10° NE
Meteor 1-14 Rocket 4.4 09:33:43 10° N 09:39:20 71° ENE 09:44:51 10° SSE
CZ-2C R/B 3.3 09:36:47 10° NNE 09:40:05 55° ENE 09:40:05 55° ENE
Spot 4 Rocket 3.9 09:35:51 10° NNE 09:41:02 87° WNW 09:41:39 70° SSW
Cosmos 1515 Rocket 3.7 09:43:48 67° NNW 09:43:48 67° NNW 09:47:45 10° N
NOSS 3-3 (A) 4.4 09:45:00 33° S 09:47:24 54° ESE 09:53:34 10° NE
NOSS 3-3 (C) 4.3 09:45:10 33° S 09:47:32 54° ESE 09:53:38 10° NE
Cosmos 1238 Rocket 4.0 09:41:52 10° N 09:48:33 84° E 09:54:39 10° S
Lacrosse 5 2.1 09:48:47 52° NW 09:49:09 53° NW 09:54:08 10° NE
USA 267 3.7 09:43:09 10° NE 09:49:25 50° NNW 09:51:38 36° WNW
Celestis-02/Orion 38 4.4 09:45:26 10° SSE 09:50:42 70° WSW 09:55:54 10° NNW
Cosmos 1777 Rocket 4.0 09:47:08 10° NNW 09:51:42 55° WNW 09:51:42 55° WNW
BREEZE-M DEB (TANK) 4.4 09:50:54 38° SW 09:54:03 73° SSE 10:19:47 10° ENE
Cosmos 1821 Rocket 4.2 09:48:20 10° NNW 09:54:19 47° W 09:54:46 46° WSW
Cosmos 972 4.3 09:54:38 50° SSW 09:56:00 89° WNW 10:00:55 10° NNE
Cosmos 921 Rocket 3.5 09:55:09 35° SSE 09:56:35 54° ESE 10:00:41 10° NNE
CZ-4C R/B 3.1 09:57:19 70° ESE 09:57:35 75° ENE 10:01:11 10° N
Cosmos 44 2.9 09:58:36 66° SSW 09:59:14 88° ESE 10:03:52 10° NE
Cosmos 1933 Rocket 3.6 09:58:29 10° NNW 10:02:26 57° WNW 10:02:26 57° WNW
Cosmos 2228 Rocket 3.0 10:01:20 41° S 10:02:51 84° E 10:07:17 10° N
ADEOS II 3.6 09:59:59 10° NNW 10:03:06 20° NW 10:03:06 20° NW
Cosmos 1934 Rocket 3.9 10:02:56 10° NNW 10:08:53 61° W 10:14:50 10° S
X-37B 0.9 10:10:31 59° N 10:10:31 59° N 10:13:35 10° E
Meteor 1-4 Rocket 3.5 10:09:31 17° SSE 10:11:50 44° E 10:15:11 10° NNE
IDEFIX/ARIANE 42P 3.1 10:11:40 10° N 10:16:32 39° WNW 10:17:40 35° W
Cosmos 2278 4.0 10:15:57 35° WSW 10:17:47 48° WNW 10:23:19 10° NNE
Cosmos 389 Rocket 3.6 10:21:42 29° NW 10:21:42 29° NW 10:24:08 10° N
MSX 4.0 10:16:03 10° N 10:21:40 54° WNW 10:24:50 25° SW
ADEOS Rocket 3.5 10:14:57 10° SSE 10:21:51 69° ENE 10:28:04 10° N
Cosmos 1869 Rocket 3.5 10:17:29 10° N 10:21:52 85° E 10:26:11 10° S
ALOS 4.1 10:18:28 10° NNE 10:22:37 31° E 10:26:45 10° SSE
ARIANE 5 R/B 3.6 10:18:53 10° N 10:23:03 26° WNW 10:23:29 25° WNW
Timation 1 Rocket 4.4 10:17:41 10° NW 10:23:29 52° WSW 10:29:16 10° S
Meteor 1-11 Rocket 4.3 10:17:56 10° N 10:23:42 61° ENE 10:29:17 10° SSE
USA 234 3.2 10:17:29 10° SSE 10:23:54 60° SW 10:30:22 10° NW
USA 305 4.0 10:23:29 27° WNW 10:24:47 34° NNW 10:28:41 10° NE
USA 306 4.0 10:27:25 25° WNW 10:28:54 32° NNW 10:32:46 10° NE
IRIDIUM 106 4.2 10:26:08 10° N 10:31:22 80° W 10:36:35 10° S
ERS-2 2.0 10:27:44 10° SSE 10:31:24 81° WSW 10:35:05 10° NNW
Cosmos 1605 Rocket 4.0 10:25:58 10° NNW 10:32:17 64° W 10:38:34 10° S
Meteor 1-27 Rocket 4.2 10:30:10 10° S 10:36:03 68° E 10:41:56 10° NNE
SJ 16-02 1.2 10:32:19 10° NNW 10:36:44 78° WSW 10:41:06 10° SSE
PSLV R/B 3.5 10:34:40 10° N 10:38:50 61° WNW 10:42:13 15° SSW
H-2A R/B 2.5 10:36:19 10° SSW 10:40:22 39° W 10:44:33 10° NNW
Cosmos 1763 Rocket 3.6 10:40:18 10° SSW 10:45:37 85° ESE 10:50:58 10° NNE
Cosmos 1812 3.2 10:47:59 20° SW 10:50:11 38° WNW 10:53:48 10° N
SJ-6F 4.3 10:49:13 10° N 10:53:21 83° WNW 10:57:25 10° SSW
CZ-2C R/B 2.7 10:51:00 10° N 10:55:57 50° WNW 11:00:56 10° SW
USA 307 4.4 10:53:21 14° WNW 10:56:06 26° NNW 10:59:41 10° NE
ERBS 2.4 10:54:40 22° WSW 10:56:38 60° NW 10:59:58 10° NE
Cosmos 1500 4.1 10:53:21 10° NNW 10:56:40 28° W 10:59:56 10° SSW
Cosmos 2360 Rocket 3.4 10:52:00 10° S 10:57:20 45° ESE 11:02:43 10° NE
USA 308 4.4 10:56:20 13° WNW 10:59:14 25° NNW 11:02:48 10° NE
SL-4 R/B 2.9 10:55:28 11° SW 10:59:47 54° SE 11:04:28 10° ENE
CZ-4B R/B 1.1 10:56:46 10° S 10:59:51 66° WSW 11:03:03 10° NNW
SL-8 R/B 3.6 10:55:57 12° WNW 11:00:27 77° SSW 11:05:13 10° ESE
PAYLOAD A 4.4 10:58:05 10° N 11:02:23 36° WNW 11:06:38 10° SW
Cosmos 1666 2.7 10:58:54 10° NNW 11:02:39 54° W 11:06:21 10° S
COSMO-SKYMED 1 3.9 10:59:33 10° SE 11:03:41 45° ENE 11:07:50 10° N
Cosmos 1697 Rocket 4.5 11:01:19 11° WNW 11:03:59 15° NW 11:07:07 10° N
Cosmos 1727 Rocket 4.1 10:58:24 10° SSW 11:04:37 56° WNW 11:10:51 10° N
DEBRIS 3.1 11:04:10 16° W 11:06:08 49° SSW 11:12:11 10° SE
USA 276 4.0 11:03:32 10° NW 11:06:12 23° N 11:08:53 10° ENE
Cosmos 2100 Rocket 4.0 11:00:48 10° N 11:07:12 84° W 11:13:34 10° S
Cosmos 1980 Rocket 3.5 11:04:19 14° W 11:07:46 23° NW 11:12:15 10° N
METEOR-M 4.4 11:02:34 10° NNE 11:07:56 74° ESE 11:13:16 10° S
Cosmos 990 Rocket 4.0 11:03:46 10° NNW 11:08:51 58° WSW 11:13:57 10° S
Cosmos 1802 Rocket 4.2 11:03:43 10° N 11:09:56 78° E 11:16:11 10° SSE
Cosmos 468 Rocket 4.2 11:05:37 10° SW 11:10:47 52° WNW 11:15:58 10° NNE
Gbstr 26 Del rocket 4.4 11:02:53 10° WNW 11:10:57 88° SW 11:17:54 10° SE
FENGYUN 3A 3.7 11:06:53 10° NNE 11:12:19 86° WNW 11:17:43 10° SSW
Cosmos 2322 Rocket 2.2 11:07:11 10° SSW 11:12:50 76° WNW 11:18:33 10° NNE
Cosmos 44 Rocket 4.0 11:10:32 10° SSW 11:15:06 54° ESE 11:19:50 10° NE
Cosmos 2263 Rocket 2.7 11:11:48 10° NW 11:16:58 38° WSW 11:22:09 10° S
Cosmos 540 Rocket 3.6 11:12:54 10° SSW 11:18:03 84° ESE 11:23:15 10° NNE
SL-16 R/B 2.4 11:15:16 10° SW 11:20:47 54° WNW 11:26:23 10° NNE
Cosmos 1844 Rocket 3.6 11:18:24 10° NNW 11:23:56 55° ENE 11:29:28 10° SE
deb Chang Zheng 4 3.9 11:20:55 10° N 11:25:00 43° WNW 11:29:02 10° SW
CZ-4B R/B 2.9 11:21:46 10° NNE 11:25:27 73° ESE 11:29:01 10° S
CZ-4B R/B 4.1 11:21:32 10° N 11:25:47 65° WNW 11:30:10 10° SSW
SAR-Lupe-4 4.1 11:23:53 10° SSW 11:27:13 37° W 11:30:36 10° NNW
Cosmos 1459 Rocket 4.0 11:22:02 10° NNW 11:28:03 63° W 11:33:59 10° S
Cosmos 2123 Rocket 4.2 11:23:01 10° S 11:29:14 81° E 11:35:33 10° N
Cosmos 2242 Rocket 4.3 11:26:11 10° S 11:30:30 59° E 11:34:50 10° NNE
NOSS 3-4 (A) 4.1 11:23:31 10° NW 11:30:37 84° NE 11:38:27 10° SE
NOSS 3-4 (C) 4.1 11:23:37 10° NW 11:30:43 84° NE 11:38:34 10° SE
Lacrosse 5 3.6 11:29:22 10° WNW 11:33:07 20° NNW 11:36:52 10° NNE
Cosmos 1707 Rocket 4.5 11:30:57 10° SW 11:34:40 27° WNW 11:38:24 10° NNW
